Date String (YYYY-MM-DD hh:mm:ss) UTC,Instrument flags,Ambient pressure (hPa),Sample flow (lpm),Bypass flow (lpm),Sample temperature (°C),Ambient temperature (°C),ASC tube jacket temperature (°C),LED temperature (°C),Box temperature (°C),Sample RH (%),Span deviation,Mass concentration (μg/m³),Mass concentration (μg/m³),Mass concentration (μg/m³)
DateTimeUTC,F1_M11,P_M11,Q1_M11,Q2_M11,T1_M11,T2_M11,T3_M11,T4_M11,T5_M11,U1_M11,ZSPAN_M11,X0_M11,X2_M11,X1_M11
2022-01-14 19:00:00,,0829.2,5.00,0.00,22.7,22.1,00.0,31.7,24.4,16.3,0000.0,0003.74,0001.19,0000.89
2022-01-14 19:01:00,,0829.3,5.00,0.00,22.7,22.1,00.0,31.7,24.4,16.2,0000.0,0003.65,0001.16,0000.88
2022-01-14 19:02:00,,0829.3,5.00,0.00,22.7,22.1,00.0,31.7,24.4,16.2,0000.0,0003.55,0001.14,0000.87
2022-01-14 19:03:00,,0829.3,5.01,0.00,22.7,22.1,00.0,31.7,24.5,16.1,0000.0,0003.09,0001.14,0000.87
2022-01-14 19:04:00,,0829.3,4.98,0.00,22.7,22.1,00.0,31.7,24.5,16.2,0000.0,0001.95,0001.16,0000.86
2022-01-14 19:05:00,,0829.4,5.02,0.00,22.7,22.1,00.0,31.7,24.5,16.0,0000.0,0001.88,0001.15,0000.86
2022-01-14 19:06:00,,0829.3,4.99,0.00,22.7,22.1,00.0,31.7,24.5,15.9,0000.0,0001.79,0001.11,0000.86
2022-01-14 19:07:00,,0829.2,5.02,0.00,22.7,22.1,00.0,31.7,24.5,16.0,0000.0,0001.79,0001.11,0000.86
2022-01-14 19:08:00,,0829.3,4.99,0.00,22.7,22.1,00.0,31.7,24.5,16.0,0000.0,0001.73,0001.09,0000.86
2022-01-14 19:09:00,,0829.3,5.01,0.00,22.7,22.1,00.0,31.7,24.5,16.0,0000.0,0001.76,0001.09,0000.85
2022-01-14 19:10:00,,0829.3,4.99,0.00,22.7,22.1,00.0,31.7,24.5,15.9,0000.0,0001.87,0001.10,0000.85
2022-01-14 19:11:00,,0829.3,5.00,0.00,22.7,22.1,00.0,31.7,24.5,15.7,0000.0,0001.98,0001.09,0000.85
2022-01-14 19:12:00,,0829.3,5.00,0.00,22.7,22.2,00.0,31.7,24.5,15.8,0000.0,0001.95,0001.08,0000.86
2022-01-14 19:13:00,,0829.3,4.99,0.00,22.7,22.2,00.0,31.7,24.5,15.8,0000.0,0001.89,0001.06,0000.87
2022-01-14 19:14:00,,0829.2,5.00,0.00,22.7,22.2,00.0,31.7,24.5,15.8,0000.0,0001.81,0001.05,0000.87
2022-01-14 19:15:00,,0829.3,5.00,0.00,22.7,22.2,00.0,31.7,24.5,15.8,0000.0,0001.77,0001.04,0000.88
2022-01-14 19:16:00,,0829.3,4.99,0.00,22.7,22.2,00.0,31.7,24.5,15.7,0000.0,0001.89,0001.02,0000.88
2022-01-14 19:17:00,,0829.2,5.01,0.00,22.7,22.2,00.0,31.7,24.5,15.7,0000.0,0002.56,0001.05,0000.89
2022-01-14 19:18:00,,0829.3,5.00,0.00,22.7,22.2,00.0,31.7,24.5,15.7,0000.0,0002.61,0001.08,0000.90
2022-01-14 19:19:00,,0829.3,5.00,0.00,22.7,22.2,00.0,31.7,24.5,15.6,0000.0,0002.78,0001.11,0000.90
2022-01-14 19:20:00,,0829.3,5.01,0.00,22.8,22.2,00.0,31.7,24.6,15.5,0000.0,0004.53,0001.14,0000.91
2022-01-14 19:21:00,,0829.3,4.99,0.00,22.8,22.2,00.0,31.7,24.6,15.6,0000.0,0004.52,0001.14,0000.92
2022-01-14 19:22:00,,0829.3,5.02,0.00,22.8,22.2,00.0,31.7,24.6,15.6,0000.0,0004.44,0001.18,0000.92
2022-01-14 19:23:00,,0829.3,4.99,0.00,22.8,22.3,00.0,31.7,24.6,15.5,0000.0,0004.44,0001.17,0000.92
2022-01-14 19:24:00,,0829.3,5.01,0.00,22.8,22.3,00.0,31.7,24.7,15.6,0000.0,0004.53,0001.19,0000.93
2022-01-14 19:25:00,,0829.3,4.99,0.00,22.8,22.3,00.0,31.8,24.7,15.7,0000.0,0004.94,0001.25,0000.94
2022-01-14 19:26:00,,0829.4,5.00,0.00,22.8,22.3,00.0,31.8,24.7,15.6,0000.0,0004.97,0001.26,0000.96
2022-01-14 19:27:00,,0829.3,4.99,0.00,22.8,22.3,00.0,31.8,24.7,15.4,0000.0,0004.94,0001.27,0000.97
2022-01-14 19:28:00,,0829.3,5.01,0.00,22.9,22.3,00.0,31.8,24.7,15.3,0000.0,0004.24,0001.23,0000.98
2022-01-14 19:29:00,,0829.4,5.01,0.00,22.9,22.3,00.0,31.8,24.7,15.3,0000.0,0004.18,0001.21,0000.98
2022-01-14 19:30:00,,0829.4,5.01,0.00,22.9,22.3,00.0,31.8,24.7,15.3,0000.0,0003.99,0001.19,0000.99
2022-01-14 19:31:00,,0829.4,4.98,0.00,22.9,22.3,00.0,31.8,24.7,15.3,0000.0,0002.19,0001.14,0000.99
2022-01-14 19:32:00,,0829.5,5.01,0.00,22.9,22.4,00.0,31.8,24.7,15.2,0000.0,0002.11,0001.14,0000.99
2022-01-14 19:33:00,,0829.5,5.00,0.00,22.9,22.4,00.0,31.8,24.7,15.3,0000.0,0002.06,0001.13,0001.01
2022-01-14 19:34:00,,0829.5,5.01,0.00,22.9,22.4,00.0,31.8,24.7,15.4,0000.0,0002.17,0001.18,0001.03
2022-01-14 19:35:00,,0829.5,5.00,0.00,22.9,22.4,00.0,31.8,24.7,15.3,0000.0,0002.16,0001.20,0001.04
2022-01-14 19:36:00,,0829.5,5.00,0.00,22.9,22.4,00.0,31.8,24.7,15.1,0000.0,0001.77,0001.14,0001.03
2022-01-14 19:37:00,,0829.5,5.00,0.00,22.9,22.4,00.0,31.8,24.8,14.8,0000.0,0001.69,0001.13,0001.01
2022-01-14 19:38:00,,0829.5,4.99,0.00,22.9,22.4,00.0,31.8,24.8,14.9,0000.0,0001.59,0001.14,0001.02
2022-01-14 19:39:00,,0829.5,5.01,0.00,22.9,22.4,00.0,31.8,24.8,15.0,0000.0,0001.81,0001.17,0001.02
2022-01-14 19:40:00,,0829.5,4.98,0.00,22.9,22.4,00.0,31.8,24.8,14.9,0000.0,0001.93,0001.20,0001.02
2022-01-14 19:41:00,,0829.5,5.01,0.00,22.9,22.4,00.0,31.9,24.8,14.8,0000.0,0001.98,0001.21,0001.01
2022-01-14 19:42:00,,0829.5,5.00,0.00,22.9,22.4,00.0,31.9,24.8,14.8,0000.0,0002.04,0001.23,0001.02
2022-01-14 19:43:00,,0829.5,5.01,0.00,22.9,22.4,00.0,31.9,24.8,14.7,0000.0,0002.59,0001.24,0001.02
2022-01-14 19:44:00,,0829.5,4.98,0.00,22.9,22.4,00.0,31.9,24.7,14.8,0000.0,0002.92,0001.23,0001.00
2022-01-14 19:45:00,,0829.5,5.01,0.00,22.9,22.4,00.0,31.9,24.7,14.8,0000.0,0003.08,0001.23,0001.00
2022-01-14 19:46:00,,0829.5,5.00,0.00,22.9,22.3,00.0,31.9,24.7,14.8,0000.0,0003.82,0001.22,0001.00
2022-01-14 19:47:00,,0829.5,4.99,0.00,22.9,22.3,00.0,31.9,24.7,14.7,0000.0,0004.43,0001.23,0001.00
2022-01-14 19:48:00,,0829.5,5.01,0.00,22.9,22.3,00.0,31.9,24.7,14.5,0000.0,0004.90,0001.23,0001.01
2022-01-14 19:49:00,,0829.5,4.99,0.00,22.9,22.3,00.0,31.9,24.7,14.5,0000.0,0004.94,0001.24,0001.00
2022-01-14 19:50:00,,0829.5,5.00,0.00,22.9,22.3,00.0,31.9,24.7,14.6,0000.0,0004.87,0001.27,0001.01
2022-01-14 19:51:00,,0829.5,5.00,0.00,22.9,22.3,00.0,31.9,24.7,14.5,0000.0,0004.86,0001.27,0001.02
2022-01-14 19:52:00,,0829.5,5.01,0.00,22.9,22.3,00.0,31.9,24.7,14.4,0000.0,0004.96,0001.31,0001.04
2022-01-14 19:53:00,,0829.5,5.00,0.00,22.9,22.3,00.0,31.9,24.7,14.4,0000.0,0004.96,0001.33,0001.07
2022-01-14 19:54:00,,0829.5,4.99,0.00,22.9,22.3,00.0,31.9,24.7,14.6,0000.0,0004.59,0001.35,0001.09
2022-01-14 19:55:00,,0829.5,5.01,0.00,22.9,22.3,00.0,31.9,24.7,14.5,0000.0,0004.15,0001.37,0001.12
2022-01-14 19:56:00,,0829.5,5.01,0.00,22.8,22.2,00.0,31.9,24.6,14.3,0000.0,0003.95,0001.38,0001.14
2022-01-14 19:57:00,,0829.5,4.99,0.00,22.8,22.1,00.0,31.9,24.5,14.3,0000.0,0003.19,0001.38,0001.16
2022-01-14 19:58:00,,0829.5,5.01,0.00,22.7,22.0,00.0,31.8,24.4,14.4,0000.0,0002.63,0001.41,0001.19
2022-01-14 19:59:00,,0829.5,4.99,0.00,22.7,21.9,00.0,31.8,24.4,14.5,0000.0,0002.20,0001.45,0001.21
